Chugiak, AK

4:27 PM AKDT on August 31, 2016 (GMT -0800)
Birchwood

Weather History for PABV - July, 2013

Change the Weather History Date:

Friday, July 19, 2013

  Actual Average Record
Temperature  
Mean Temperature 66 °F -  
Max Temperature 71 °F 64 °F 82 °F (2003)
Min Temperature 60 °F 49 °F 44 °F (2006)
Growing Degree Days 16 (Base 50)    
Moisture  
Dew Point 55 °F    
Average Humidity 70    
Maximum Humidity 88    
Minimum Humidity 50    
Precipitation  
Precipitation 0.00 in - - ()
Sea Level Pressure  
Sea Level Pressure 30.15 in    
Wind  
Wind Speed 4 mph (West)    
Max Wind Speed 14 mph    
Max Gust Speed 17 mph    
Visibility 10 miles    
Events      
Averages and records for this station are not official NWS values.
T = Trace of Precipitation, MM = Missing Value Source: NWS Daily Summary

Daily Weather History Graph

Daily Weather History Graph

Search for Another Location

Airport or City:

Trip Planner

Search our weather history database for the weather conditions in past years. The results will help you decide how hot, cold, wet, or windy it might be!

Date:

Astronomy

Jul. 19, 2013 Rise Set
Actual Time 4:57 AM AKDT 11:09 PM AKDT
Civil Twilight 3:30 AM AKDT 12:33 AM AKDT
Nautical Twilight Sun does not set Sun does not set
Astronomical Twilight Sun does not set Sun does not set
Moon 8:18 PM AKDT (7/19) 1:56 AM AKDT (7/19)
Length of Visible Light 21h 03m
Length of Day
18h 12m
Waxing Gibbous, 88% of the Moon is Illuminated
Jul 19
Waxing Gibbous
Jul 22
Full
Jul 29
Last Quarter
Aug 6
New
Aug 14
First Quarter

Hourly Weather History & Observations

Time (AKDT) Temp. Dew Point Humidity Pressure Visibility Wind Dir Wind Speed Gust Speed Precip Events Conditions
12:16 AM 64.4 °F 60.8 °F 88% 30.12 in 10.0 mi Calm Calm - N/A   Overcast
12:36 AM 66.2 °F 60.8 °F 83% 30.12 in 10.0 mi Calm Calm - N/A   Overcast
12:56 AM 64.4 °F 59.0 °F 83% 30.12 in 10.0 mi Calm Calm - N/A   Mostly Cloudy
1:16 AM 66.2 °F 57.2 °F 73% 30.12 in 10.0 mi SW 3.5 mph - N/A   Partly Cloudy
1:36 AM 66.2 °F 57.2 °F 73% 30.12 in 10.0 mi SSW 9.2 mph - N/A   Clear
1:56 AM 66.2 °F 55.4 °F 68% 30.12 in 10.0 mi SSW 6.9 mph - N/A   Clear
2:16 AM 66.2 °F 55.4 °F 68% 30.12 in 10.0 mi SW 6.9 mph - N/A   Partly Cloudy
2:36 AM 66.2 °F 55.4 °F 68% 30.13 in 10.0 mi SW 4.6 mph - N/A   Partly Cloudy
2:56 AM 66.2 °F 55.4 °F 68% 30.13 in 10.0 mi WSW 3.5 mph - N/A   Mostly Cloudy
3:16 AM 62.6 °F 55.4 °F 77% 30.13 in 10.0 mi NNE 3.5 mph - N/A   Partly Cloudy
3:36 AM 66.2 °F 53.6 °F 64% 30.13 in 10.0 mi South 9.2 mph - N/A   Partly Cloudy
3:56 AM 66.2 °F 53.6 °F 64% 30.13 in 10.0 mi SSW 9.2 mph - N/A   Partly Cloudy
4:16 AM 64.4 °F 53.6 °F 68% 30.13 in 10.0 mi North 3.5 mph - N/A   Clear
4:36 AM 60.8 °F 55.4 °F 82% 30.14 in 10.0 mi NE 5.8 mph - N/A   Partly Cloudy
4:56 AM 62.6 °F 55.4 °F 77% 30.14 in 10.0 mi NE 4.6 mph - N/A   Mostly Cloudy
5:16 AM 62.6 °F 55.4 °F 77% 30.14 in 10.0 mi Calm Calm - N/A   Overcast
5:36 AM 62.6 °F 55.4 °F 77% 30.14 in 10.0 mi NE 4.6 mph - N/A   Overcast
5:56 AM 62.6 °F 55.4 °F 77% 30.15 in 10.0 mi East 3.5 mph - N/A   Scattered Clouds
6:16 AM 60.8 °F 55.4 °F 82% 30.16 in 10.0 mi Calm Calm - N/A   Partly Cloudy
6:36 AM 60.8 °F 55.4 °F 82% 30.16 in 10.0 mi Calm Calm - N/A   Scattered Clouds
6:56 AM 62.6 °F 55.4 °F 77% 30.16 in 10.0 mi Calm Calm - N/A   Mostly Cloudy
7:16 AM 60.8 °F 55.4 °F 82% 30.16 in 10.0 mi Calm Calm - N/A   Mostly Cloudy
7:36 AM 60.8 °F 55.4 °F 82% 30.17 in 10.0 mi ENE 4.6 mph - N/A   Mostly Cloudy
7:56 AM 64.4 °F 55.4 °F 73% 30.16 in 10.0 mi Calm Calm - N/A   Scattered Clouds
8:16 AM 64.4 °F 55.4 °F 73% 30.17 in 10.0 mi Calm Calm - N/A   Partly Cloudy
8:36 AM 62.6 °F 55.4 °F 77% 30.17 in 10.0 mi NNE 5.8 mph - N/A   Partly Cloudy
8:56 AM 60.8 °F 55.4 °F 82% 30.17 in 10.0 mi NE 3.5 mph - N/A   Partly Cloudy
9:16 AM 62.6 °F 55.4 °F 77% 30.18 in 10.0 mi NNE 3.5 mph - N/A   Scattered Clouds
9:36 AM 62.6 °F 55.4 °F 77% 30.18 in 10.0 mi North 3.5 mph - N/A   Mostly Cloudy
9:56 AM 64.4 °F 53.6 °F 68% 30.18 in 10.0 mi Calm Calm - N/A   Partly Cloudy
10:16 AM 62.6 °F 53.6 °F 72% 30.18 in 10.0 mi Calm Calm - N/A   Clear
10:36 AM 62.6 °F 53.6 °F 72% 30.18 in 10.0 mi West 6.9 mph - N/A   Scattered Clouds
10:56 AM 62.6 °F 53.6 °F 72% 30.18 in 10.0 mi WNW 4.6 mph - N/A   Mostly Cloudy
11:16 AM 64.4 °F 55.4 °F 73% 30.18 in 10.0 mi WNW 6.9 mph - N/A   Mostly Cloudy
11:36 AM 62.6 °F 55.4 °F 77% 30.18 in 10.0 mi West 5.8 mph - N/A   Overcast
11:56 AM 64.4 °F 55.4 °F 73% 30.18 in 10.0 mi West 6.9 mph - N/A   Mostly Cloudy
12:16 PM 64.4 °F 55.4 °F 73% 30.19 in 10.0 mi West 6.9 mph - N/A   Overcast
12:36 PM 64.4 °F 55.4 °F 73% 30.18 in 10.0 mi West 8.1 mph - N/A   Mostly Cloudy
12:56 PM 66.2 °F 55.4 °F 68% 30.18 in 10.0 mi West 9.2 mph - N/A   Partly Cloudy
1:16 PM 66.2 °F 55.4 °F 68% 30.18 in 10.0 mi West 8.1 mph - N/A   Partly Cloudy
1:36 PM 66.2 °F 53.6 °F 64% 30.18 in 10.0 mi West 5.8 mph - N/A   Clear
1:56 PM 66.2 °F 53.6 °F 64% 30.17 in 10.0 mi West 3.5 mph - N/A   Clear
2:16 PM 66.2 °F 55.4 °F 68% 30.17 in 10.0 mi WNW 5.8 mph - N/A   Clear
2:36 PM 68.0 °F 55.4 °F 64% 30.17 in 10.0 mi West 8.1 mph - N/A   Clear
2:56 PM 69.8 °F 55.4 °F 60% 30.17 in 10.0 mi West 5.8 mph - N/A   Clear
3:16 PM 69.8 °F 55.4 °F 60% 30.16 in 10.0 mi West 5.8 mph - N/A   Partly Cloudy
3:36 PM 68.0 °F 53.6 °F 60% 30.16 in 10.0 mi West 4.6 mph - N/A   Partly Cloudy
3:56 PM 66.2 °F 53.6 °F 64% 30.16 in 10.0 mi West 3.5 mph - N/A   Clear
4:16 PM 64.4 °F 53.6 °F 68% 30.15 in 10.0 mi West 6.9 mph - N/A   Partly Cloudy
4:36 PM 66.2 °F 53.6 °F 64% 30.15 in 10.0 mi West 11.5 mph 17.3 mph N/A   Mostly Cloudy
4:56 PM 66.2 °F 53.6 °F 64% 30.15 in 10.0 mi West 10.4 mph - N/A   Mostly Cloudy
5:16 PM 66.2 °F 55.4 °F 68% 30.15 in 10.0 mi West 13.8 mph - N/A   Scattered Clouds
5:36 PM 66.2 °F 53.6 °F 64% 30.15 in 10.0 mi West 9.2 mph 17.3 mph N/A   Scattered Clouds
5:56 PM 66.2 °F 53.6 °F 64% 30.16 in 10.0 mi West 10.4 mph - N/A   Partly Cloudy
6:16 PM 68.0 °F 53.6 °F 60% 30.15 in 10.0 mi WSW 5.8 mph - N/A   Clear
6:36 PM 69.8 °F 53.6 °F 56% 30.15 in 10.0 mi SW 5.8 mph - N/A   Clear
6:56 PM 69.8 °F 53.6 °F 56% 30.14 in 10.0 mi SSW 10.4 mph - N/A   Clear
7:16 PM 71.6 °F 51.8 °F 50% 30.13 in 10.0 mi SW 6.9 mph - N/A   Mostly Cloudy
7:36 PM 71.6 °F 53.6 °F 53% 30.13 in 10.0 mi SW 6.9 mph - N/A   Scattered Clouds
7:56 PM 71.6 °F 53.6 °F 53% 30.13 in 10.0 mi SW 4.6 mph - N/A   Mostly Cloudy
8:16 PM 69.8 °F 53.6 °F 56% 30.12 in 10.0 mi West 4.6 mph - N/A   Mostly Cloudy
8:36 PM 62.6 °F 55.4 °F 77% 30.12 in 10.0 mi WNW 4.6 mph - N/A   Clear
8:56 PM 60.8 °F 53.6 °F 77% 30.13 in 10.0 mi West 4.6 mph - N/A   Clear
9:16 PM 64.4 °F 53.6 °F 68% 30.13 in 10.0 mi Calm Calm - N/A   Scattered Clouds
9:36 PM 66.2 °F 53.6 °F 64% 30.12 in 10.0 mi Calm Calm - N/A   Overcast
9:56 PM 66.2 °F 53.6 °F 64% 30.12 in 10.0 mi Calm Calm - N/A   Overcast
10:16 PM 64.4 °F 53.6 °F 68% 30.13 in 10.0 mi Calm Calm - N/A   Scattered Clouds
10:36 PM 64.4 °F 51.8 °F 64% 30.13 in 10.0 mi Calm Calm - N/A   Partly Cloudy
10:56 PM 64.4 °F 55.4 °F 73% 30.13 in 10.0 mi ESE 3.5 mph - N/A   Mostly Cloudy
11:16 PM 64.4 °F 57.2 °F 77% 30.14 in 10.0 mi SE 3.5 mph - N/A   Overcast
11:36 PM 62.6 °F 57.2 °F 82% 30.14 in 10.0 mi ESE 4.6 mph - N/A   Overcast
11:56 PM 62.6 °F 57.2 °F 82% 30.13 in 10.0 mi Calm Calm - N/A   Overcast